Temp
8 8 8 8 7 7 7 6 6 7 6 6 7 8 9 8 8 8 8 8 8 7 6 6 5 4 4 3 3 3 2 2 2 2 1 2 1 1 1 0 0 -0 -0 -0
8 8 8 7 7 7 6 6 7 6 6 5 6 7 9 9 8 8 7 8 7 7 6 6 4 4 4 3 3 2 2 2 1 1 1 1 1 1 0 0 -0 -1 -1 -1
8 8 8 7 7 7 6 6 6 5 5 5 6 6 8 8 8 7 7 7 7 6 5 5 4 3 3 3 2 2 2 1 1 1 1 1 0 0 0 -0 -0 -1 -1 -1
7 8 7 7 7 6 6 6 6 5 4 3 4 2 7 8 8 8 6 6 6 6 5 4 4 3 3 2 2 2 1 1 1 1 0 -0 -0 -0 -0 -1 -1 -1 -1 -2
7 7 7 7 6 6 6 6 5 5 4 2 4 2 7 7 7 8 6 5 5 5 4 4 3 3 2 2 1 1 1 1 0 0 -0 -1 -1 -1 -1 -1 -2 -2 -2 -2
7 7 6 6 6 6 5 5 5 4 3 -1 5 3 5 7 6 6 6 5 5 4 4 3 3 2 2 2 1 1 0 0 -0 -1 -1 -1 -1 -1 -2 -2 -2 -2 -3 -3
6 6 6 6 6 5 5 5 4 1 -1 1 4 2 5 5 5 5 4 4 4 3 3 2 2 2 2 1 1 0 -0 -1 -1 -1 -1 -2 -2 -2 -2 -2 -3 -3 -3 -3
5 5 6 6 6 5 4 4 4 2 1 1 2 3 5 5 5 4 3 3 2 2 1 1 1 1 0 -0 -0 -1 -1 -1 -2 -2 -2 -2 -2 -3 -3 -3 -3 -4 -4 -4
5 4 5 4 4 4 3 3 3 3 2 -1 2 3 3 3 3 2 2 2 1 1 0 1 0 -0 -0 -1 -1 -1 -1 -1 -2 -2 -2 -2 -3 -3 -3 -4 -4 -5 -5 -5
4 4 4 4 3 3 3 3 2 1 -1 -1 -0 1 3 3 2 2 2 1 1 0 -0 -1 -1 -1 -1 -1 -1 -1 -2 -2 -2 -3 -3 -4 -4 -4 -4 -5 -5 -5 -6 -5
4 3 3 2 2 3 2 2 1 1 -1 -2 -2 1 2 2 2 1 1 1 1 1 -1 -2 -2 -2 -2 -2 -2 -2 -2 -2 -3 -3 -4 -4 -4 -5 -5 -5 -5 -6 -6 -6
2 2 2 2 2 2 2 2 2 0 -2 -2 -2 0 2 1 1 1 1 1 -0 -1 -2 -2 -2 -2 -3 -3 -4 -4 -3 -3 -3 -3 -4 -4 -5 -5 -6 -6 -6 -7 -7 -7
1 1 1 1 1 2 1 1 1 0 -1 -2 -2 -1 0 0 -1 -1 -1 -1 -2 -2 -3 -3 -3 -3 -4 -5 -5 -5 -5 -5 -4 -4 -4 -5 -6 -6 -7 -7 -8 -8 -8 -8
-1 -1 -0 0 1 1 -1 -2 -2 -2 -2 -2 -2 -1 -1 -2 -2 -2 -2 -2 -2 -3 -3 -4 -4 -5 -5 -6 -6 -5 -5 -5 -4 -5 -5 -6 -7 -8 -8 -8 -9 -9 -9 -9
-2 -2 -1 -1 -1 -1 -2 -2 -2 -3 -2 -2 -0 -2 -2 -2 -2 -2 -3 -3 -3 -4 -4 -5 -6 -6 -7 -6 -6 -6 -6 -6 -6 -7 -8 -8 -9 -9 -9 -9 -9 -10 -10 -10
-2 -2 -2 -2 -2 -2 -2 -1 -2 -2 -2 -3 -3 -2 -2 -2 -3 -3 -4 -4 -5 -6 -7 -7 -7 -7 -8 -7 -7 -8 -8 -8 -8 -9 -9 -9 -10 -10 -10 -10 -10 -10 -11 -11
-3 -3 -3 -3 -3 -3 -3 -2 -2 -1 -3 -3 -3 -3 -3 -3 -4 -5 -7 -7 -7 -7 -7 -7 -8 -8 -9 -8 -8 -9 -9 -9 -10 -10 -10 -10 -11 -11 -11 -11 -12 -12 -12 -12
-3 -3 -3 -3 -3 -3 -1 -1 -1 -2 -2 -3 -3 -4 -4 -4 -6 -8 -8 -8 -8 -8 -8 -8 -9 -9 -10 -10 -10 -11 -11 -11 -11 -11 -11 -12 -12 -12 -12 -12 -12 -12 -13 -13
-1 -3 -3 -3 -3 -2 -1 -2 -2 -2 -3 -3 -4 -5 -7 -8 -8 -8 -8 -8 -9 -9 -9 -10 -10 -11 -11 -11 -11 -11 -11 -11 -12 -12 -12 -13 -13 -13 -14 -14 -14 -14 -14 -14
-1 -2 -3 -3 -3 -3 -1 -1 -2 -3 -5 -5 -6 -7 -8 -9 -8 -9 -10 -10 -10 -10 -11 -11 -12 -12 -12 -12 -11 -12 -12 -12 -12 -13 -13 -13 -14 -14 -15 -15 -15 -15 -16 -16
-2 -3 -3 -3 -3 -3 -3 -4 -5 -7 -5 -6 -7 -7 -8 -9 -10 -10 -10 -11 -11 -11 -12 -12 -12 -12 -12 -12 -12 -13 -13 -13 -14 -14 -14 -15 -15 -16 -16 -16 -17 -17 -17 -17
-3 -3 -4 -4 -3 -4 -6 -6 -7 -7 -7 -8 -8 -9 -9 -9 -10 -11 -11 -12 -12 -12 -12 -13 -13 -13 -13 -13 -14 -14 -14 -14 -14 -14 -15 -15 -16 -16 -16 -17 -17 -18 -19 -19
-4 -4 -4 -4 -4 -5 -6 -6 -7 -8 -9 -9 -10 -10 -11 -11 -11 -12 -12 -12 -13 -13 -13 -13 -13 -13 -14 -15 -15 -15 -15 -15 -15 -16 -16 -16 -17 -17 -18 -18 -18 -18 -19 -20
-6 -6 -6 -6 -6 -7 -7 -8 -9 -10 -11 -11 -11 -12 -12 -12 -12 -12 -12 -13 -13 -14 -14 -14 -14 -15 -15 -16 -16 -16 -16 -16 -16 -16 -17 -17 -18 -18 -18 -19 -19 -19 -20 -20
-7 -7 -8 -8 -8 -8 -9 -10 -11 -11 -11 -12 -12 -13 -13 -13 -13 -13 -13 -14 -14 -14 -15 -15 -15 -16 -16 -16 -17 -17 -17 -17 -17 -17 -18 -18 -18 -19 -19 -20 -20 -20 -20 -21
-9 -9 -10 -9 -9 -11 -11 -11 -12 -12 -12 -13 -14 -14 -14 -13 -14 -14 -14 -15 -15 -16 -16 -16 -16 -17 -17 -17 -17 -18 -18 -18 -18 -18 -19 -19 -19 -20 -20 -20 -20 -21 -21 -21
Height
3129 3129 3127 3125 3124 3123 3122 3120 3118 3116 3114 3111 3108 3102 3100 3096 3092 3092 3094 3093 3093 3092 3091 3091 3091 3090 3091 3091 3091 3090 3091 3090 3090 3090 3090 3089 3089 3089 3088 3086 3086 3085 3084 3083
3128 3125 3124 3123 3122 3121 3119 3117 3114 3112 3110 3106 3102 3097 3094 3090 3089 3089 3089 3090 3090 3089 3088 3087 3087 3086 3086 3087 3087 3087 3087 3087 3087 3087 3087 3087 3086 3086 3085 3084 3083 3083 3082 3081
3123 3123 3121 3120 3119 3118 3116 3113 3110 3108 3105 3103 3096 3089 3089 3088 3086 3085 3085 3085 3085 3086 3085 3084 3083 3083 3083 3083 3083 3082 3082 3083 3083 3083 3084 3083 3083 3082 3082 3081 3080 3079 3078 3077
3120 3119 3118 3117 3116 3115 3112 3109 3107 3104 3102 3098 3097 3087 3084 3082 3082 3081 3080 3081 3080 3081 3080 3079 3079 3079 3079 3079 3079 3078 3079 3079 3079 3079 3080 3080 3079 3079 3078 3078 3076 3074 3073 3071
3118 3116 3114 3113 3112 3110 3109 3107 3104 3101 3097 3093 3090 3089 3077 3078 3077 3077 3077 3076 3076 3076 3075 3074 3075 3076 3075 3074 3074 3074 3074 3074 3074 3075 3074 3074 3074 3073 3073 3072 3071 3069 3067 3065
3113 3111 3110 3108 3108 3106 3105 3104 3100 3095 3093 3091 3084 3084 3075 3075 3074 3074 3073 3072 3071 3070 3071 3070 3070 3070 3069 3068 3068 3068 3068 3069 3069 3069 3069 3068 3068 3068 3067 3067 3065 3063 3061 3060
3107 3106 3104 3104 3103 3102 3102 3101 3099 3095 3093 3086 3081 3079 3070 3069 3067 3066 3068 3068 3067 3066 3065 3064 3064 3064 3063 3063 3062 3062 3063 3063 3063 3063 3063 3062 3062 3061 3059 3059 3057 3056 3054 3053
3102 3100 3100 3099 3100 3099 3097 3098 3099 3095 3090 3080 3080 3070 3063 3063 3061 3060 3062 3062 3063 3062 3061 3060 3059 3059 3058 3057 3057 3056 3056 3056 3056 3056 3055 3055 3054 3053 3052 3051 3050 3048 3047 3045
3098 3094 3094 3094 3094 3095 3091 3091 3091 3089 3084 3081 3068 3062 3060 3058 3056 3055 3056 3056 3055 3054 3054 3054 3054 3054 3053 3051 3050 3050 3050 3049 3049 3049 3049 3048 3048 3046 3045 3043 3041 3039 3037 3035
3094 3089 3087 3087 3087 3087 3087 3086 3086 3086 3084 3077 3062 3057 3054 3053 3051 3051 3051 3050 3049 3049 3049 3048 3047 3048 3046 3045 3045 3044 3043 3043 3042 3042 3041 3040 3038 3037 3035 3033 3031 3029 3027 3024
3091 3088 3082 3080 3079 3080 3081 3078 3079 3078 3076 3071 3065 3052 3049 3048 3047 3047 3047 3046 3045 3043 3042 3041 3040 3039 3039 3038 3038 3037 3036 3035 3033 3032 3031 3030 3027 3026 3025 3023 3020 3018 3015 3013
3085 3081 3074 3072 3073 3071 3070 3069 3071 3070 3066 3061 3057 3045 3047 3046 3044 3042 3042 3041 3039 3037 3035 3033 3032 3031 3030 3030 3029 3029 3029 3028 3025 3023 3021 3020 3018 3015 3013 3011 3008 3005 3003 3001
3077 3072 3069 3064 3064 3062 3060 3060 3061 3061 3058 3051 3052 3041 3041 3041 3040 3037 3036 3034 3032 3030 3027 3025 3024 3023 3023 3022 3021 3019 3018 3016 3016 3014 3011 3008 3006 3004 3001 2999 2997 2995 2992 2991
3071 3065 3063 3058 3056 3057 3055 3053 3052 3051 3047 3043 3033 3034 3036 3033 3031 3029 3028 3025 3022 3020 3018 3015 3016 3015 3014 3013 3012 3010 3008 3006 3003 3000 2998 2996 2994 2992 2990 2988 2987 2985 2983 2981
3060 3052 3052 3049 3048 3048 3042 3040 3042 3038 3032 3033 3019 3025 3028 3020 3019 3017 3016 3013 3012 3011 3010 3008 3007 3009 3007 3005 3003 3000 2998 2996 2994 2992 2990 2987 2984 2983 2981 2979 2976 2974 2972 2970
3048 3042 3042 3034 3037 3035 3027 3024 3024 3023 3019 3016 3013 3011 3010 3009 3007 3006 3005 3004 3003 3002 3003 3003 3002 3000 3000 2997 2995 2993 2989 2986 2984 2982 2980 2978 2976 2973 2971 2969 2965 2963 2961 2959
3039 3036 3034 3023 3027 3026 3015 3009 3009 3008 3007 3007 3004 3004 3001 2999 2998 2998 2998 2998 2998 2998 2998 2996 2994 2991 2990 2987 2985 2983 2981 2977 2975 2972 2970 2968 2965 2963 2960 2957 2954 2951 2949 2947
3028 3026 3026 3017 3020 3011 2999 2999 2999 2998 2996 2995 2994 2995 2994 2993 2990 2990 2992 2993 2991 2991 2989 2987 2985 2982 2980 2978 2975 2974 2972 2968 2966 2964 2961 2958 2955 2952 2949 2946 2943 2940 2937 2935
3015 3016 3013 3009 3004 2998 2992 2991 2991 2989 2989 2987 2987 2985 2986 2986 2986 2986 2985 2984 2984 2982 2980 2978 2976 2974 2972 2970 2967 2964 2961 2958 2955 2952 2949 2946 2943 2939 2936 2933 2930 2927 2924 2922
3005 3005 3005 3000 2994 2988 2983 2982 2981 2981 2978 2977 2978 2978 2978 2980 2980 2980 2979 2977 2975 2974 2972 2970 2968 2965 2963 2960 2957 2954 2951 2947 2944 2940 2937 2933 2930 2926 2923 2920 2916 2913 2909 2907
2997 2995 2992 2990 2983 2978 2975 2974 2973 2974 2973 2970 2973 2974 2974 2975 2976 2973 2971 2971 2969 2966 2964 2963 2960 2957 2954 2950 2946 2943 2940 2936 2932 2928 2924 2920 2916 2912 2908 2905 2901 2898 2895 2892
2986 2986 2982 2980 2974 2968 2966 2967 2972 2970 2966 2968 2968 2968 2968 2967 2966 2965 2964 2963 2962 2960 2958 2955 2951 2948 2943 2940 2936 2931 2928 2923 2919 2916 2912 2909 2904 2900 2896 2891 2888 2885 2882 2879
2975 2974 2970 2969 2965 2962 2961 2961 2965 2966 2965 2964 2964 2963 2962 2960 2958 2956 2956 2956 2955 2953 2949 2945 2941 2937 2933 2929 2924 2920 2917 2913 2909 2905 2901 2897 2892 2888 2884 2879 2875 2872 2869 2866
2968 2967 2966 2964 2958 2956 2955 2958 2958 2957 2958 2958 2959 2959 2959 2957 2955 2951 2948 2947 2945 2942 2939 2934 2931 2928 2924 2919 2915 2910 2906 2901 2897 2893 2889 2884 2879 2875 2872 2868 2863 2859 2856 2854
2961 2960 2956 2953 2952 2952 2953 2953 2953 2952 2953 2953 2955 2955 2954 2952 2947 2945 2942 2938 2936 2933 2930 2925 2921 2918 2914 2910 2905 2900 2895 2890 2886 2881 2876 2872 2867 2863 2858 2854 2850 2847 2844 2841
2951 2951 2951 2950 2948 2948 2949 2950 2950 2950 2951 2951 2950 2949 2948 2944 2941 2937 2934 2931 2927 2925 2920 2916 2913 2908 2903 2898 2894 2889 2884 2879 2874 2869 2864 2859 2854 2849 2844 2840 2838 2836 2831 2828
Wind_Speed
9 9 9 8 9 11 14 16 17 17 19 18 23 27 25 24 24 10 8 5 6 4 8 7 9 11 10 10 11 11 11 12 11 9 9 11 13 13 12 12 13 13 13 14
12 12 8 11 11 13 17 18 21 18 13 23 27 31 24 16 8 9 7 6 8 5 5 7 9 10 10 11 11 12 13 13 13 11 10 12 14 14 12 13 16 16 16 18
13 14 10 10 13 15 19 19 17 17 19 23 29 28 8 15 14 14 13 10 8 5 4 6 8 11 11 10 12 15 15 16 15 13 13 13 15 16 15 16 18 20 23 25
11 7 11 14 18 18 18 16 16 18 21 11 22 9 19 15 12 16 16 13 8 8 4 3 5 9 12 14 15 16 17 18 17 16 15 15 16 18 17 18 20 22 25 27
13 14 15 19 16 17 16 14 18 21 25 23 20 10 7 9 12 15 17 15 9 10 6 4 4 8 11 13 15 17 18 19 19 19 18 19 19 20 19 21 21 22 25 29
17 18 17 15 19 16 15 15 20 21 13 4 7 11 7 12 20 18 21 16 14 13 9 4 4 9 14 15 15 17 19 20 22 22 22 22 22 23 24 24 25 26 28 31
18 19 20 13 15 14 10 15 7 4 1 6 6 9 27 31 29 26 18 16 15 12 9 6 9 13 15 17 18 19 20 23 25 25 26 25 26 28 30 29 29 31 33 35
13 7 8 8 13 14 13 15 6 5 4 8 17 12 12 18 19 13 17 14 13 12 10 9 12 14 15 16 18 20 22 25 27 29 30 30 31 32 34 34 34 36 39 40
8 9 7 14 18 16 12 12 12 13 19 7 10 13 16 17 11 15 18 17 16 14 11 13 14 15 14 13 15 18 22 25 29 31 32 34 35 37 39 39 41 42 42 42
15 22 20 18 18 21 21 19 10 9 4 5 7 12 13 15 19 19 19 19 18 14 16 19 25 19 15 15 17 20 22 23 25 27 30 33 36 38 41 44 45 43 40 43
23 24 25 21 21 22 22 27 22 19 10 4 3 7 8 14 20 22 22 20 21 29 33 23 23 20 18 18 20 22 24 27 29 30 31 33 35 38 43 45 44 45 43 44
24 29 33 37 33 33 31 29 27 17 8 13 12 17 20 18 22 25 27 30 28 27 28 24 23 25 22 20 22 22 23 26 28 30 32 35 37 41 42 43 43 41 40 39
15 14 14 13 15 19 22 23 24 29 25 22 11 11 15 23 27 27 32 36 35 36 30 23 22 22 21 21 23 24 25 26 31 36 36 37 40 39 39 37 36 35 35 34
29 32 30 29 27 25 25 25 23 25 22 26 35 37 36 34 37 37 37 42 42 45 27 21 21 22 21 21 21 23 26 30 32 34 35 35 35 34 33 32 33 32 33 33
24 37 37 41 41 41 45 46 41 38 46 35 53 38 35 35 36 40 44 39 34 27 25 22 20 18 19 21 25 26 27 29 31 31 31 31 32 32 32 33 34 35 36 37
33 37 39 48 43 40 41 42 38 38 42 47 48 48 45 46 42 41 35 32 28 22 19 17 18 19 21 25 26 27 28 29 30 30 31 32 33 35 36 37 37 38 39 40
40 39 31 39 28 25 30 34 34 32 32 33 34 33 36 36 34 30 24 19 17 17 17 21 25 25 24 25 27 27 28 29 30 31 33 35 36 37 38 38 38 39 39 40
45 41 37 29 24 11 29 32 32 26 31 34 34 34 34 33 27 18 16 15 15 18 23 26 25 24 24 26 27 28 29 31 32 33 35 36 37 38 39 40 40 41 41 42
33 39 32 18 24 23 34 35 30 25 28 29 26 28 24 18 15 16 14 17 22 23 23 23 24 24 25 27 29 31 33 36 37 39 40 40 41 42 42 42 42 43 43 44
19 31 39 25 12 11 28 28 26 27 26 23 24 19 15 14 14 15 18 21 20 21 23 22 22 24 27 31 34 36 39 41 43 44 44 44 45 45 45 45 45 44 44 45
27 27 37 40 25 21 32 30 19 12 16 14 11 12 13 14 16 17 19 22 23 21 22 25 28 30 34 37 40 42 43 44 44 44 44 43 42 43 43 43 43 42 42 43
34 30 29 27 31 22 16 9 10 9 6 8 16 16 16 16 18 19 19 19 20 23 27 30 33 36 38 41 42 41 39 37 36 36 37 37 38 39 40 41 41 40 40 40
14 18 9 11 10 16 14 13 10 16 17 15 14 14 17 17 17 16 18 22 25 30 33 36 38 39 37 34 32 33 35 36 37 38 38 39 39 39 39 40 41 40 40 39
29 30 34 34 28 19 15 14 15 12 10 11 15 15 15 15 17 20 23 27 31 34 36 35 31 30 30 32 32 35 37 38 38 39 39 39 39 39 39 39 39 40 39 39
31 31 22 20 15 11 15 12 8 10 15 13 13 14 16 19 22 25 28 31 33 31 28 30 30 30 31 33 34 35 38 40 40 40 40 41 41 40 40 38 38 39 38 38
17 13 10 7 12 11 7 10 13 12 11 12 14 18 22 25 27 30 28 25 26 27 28 30 30 32 34 35 36 37 39 40 41 42 42 41 42 41 40 40 38 35 37 38
Wind_Direction
301 300 301 293 300 305 312 307 304 315 300 299 314 316 326 307 305 222 259 249 265 277 273 263 256 258 263 265 262 262 261 261 265 280 297 313 314 310 316 322 322 318 315 309
300 303 300 303 300 304 307 304 309 309 300 305 313 314 326 310 278 252 273 272 269 269 283 266 259 263 266 264 264 261 258 256 261 270 285 302 302 297 304 315 315 316 316 312
297 293 300 301 304 304 304 299 306 299 301 302 310 311 324 307 280 266 270 247 264 263 277 264 253 256 266 268 259 256 257 254 255 265 277 291 295 290 291 301 305 311 315 313
295 286 300 298 301 301 299 309 306 302 303 297 303 288 292 286 276 258 257 245 252 267 274 316 262 257 259 257 255 255 254 253 256 263 274 285 289 285 283 291 296 303 309 308
285 291 292 292 296 299 294 301 301 298 292 292 293 245 296 267 266 265 269 257 265 264 267 332 281 274 274 271 260 255 255 256 259 264 272 277 281 275 273 283 289 297 311 314
290 284 282 282 293 288 290 300 306 293 282 272 291 230 246 287 296 278 280 247 261 256 262 288 273 294 294 281 268 263 261 260 261 263 268 274 278 271 273 279 284 292 301 311
290 284 280 273 276 278 274 306 304 311 267 239 304 258 277 285 279 273 254 248 239 243 248 259 288 306 298 273 258 256 257 257 258 262 266 271 274 270 273 278 283 288 295 304
282 274 258 270 275 271 286 281 234 271 248 275 288 255 280 280 281 253 238 226 216 226 248 270 291 305 290 269 259 254 253 255 257 261 265 271 274 274 276 280 284 288 292 298
274 259 241 280 277 266 278 246 256 251 273 295 257 262 268 264 238 222 215 207 219 238 259 280 295 299 279 272 267 264 263 262 263 266 270 275 278 279 278 279 281 285 289 293
268 279 284 275 261 263 255 257 243 229 271 250 259 269 248 234 226 221 225 236 247 258 276 283 287 281 271 276 276 274 272 271 271 272 273 275 276 276 274 277 282 286 284 285
271 272 278 269 263 273 266 256 249 251 223 233 287 253 245 226 233 232 234 241 257 267 270 287 278 269 267 270 273 273 271 270 270 270 271 273 274 274 275 279 280 282 284 288
268 272 271 276 278 278 271 258 256 233 235 225 248 263 258 252 249 244 243 255 260 269 285 282 274 265 254 265 271 276 281 280 274 272 273 273 273 274 277 279 280 282 284 284
275 259 276 287 273 263 257 260 261 255 248 244 245 264 266 277 253 248 262 262 269 277 289 281 275 259 261 266 274 283 286 288 291 285 277 276 276 277 279 281 282 282 280 278
274 260 252 252 264 281 275 271 254 250 250 264 246 263 268 268 265 263 269 267 271 276 263 252 257 255 257 270 288 298 297 292 284 281 281 280 280 281 282 281 279 277 274 272
251 255 257 263 268 272 275 273 270 261 264 249 273 262 271 271 267 273 275 268 263 251 252 250 250 260 279 288 285 280 278 281 284 285 285 283 281 279 277 275 275 274 273 272
268 269 279 281 282 282 280 278 275 266 264 261 266 269 269 269 269 271 261 255 249 247 248 258 274 294 297 293 287 285 284 283 283 282 282 280 279 277 276 275 274 275 274 273
271 268 266 270 280 279 271 277 278 275 258 253 253 257 261 266 264 255 247 249 255 264 275 289 298 297 289 287 285 283 282 282 281 280 279 279 278 278 278 279 278 277 277 277
261 260 260 262 272 247 264 276 277 256 252 256 253 261 261 259 255 247 249 254 265 285 295 297 292 288 286 285 286 286 286 287 287 288 287 286 286 285 284 283 282 281 280 280
252 250 247 246 244 253 267 271 267 255 262 253 257 254 252 254 261 267 272 284 291 291 288 285 286 288 290 292 293 293 294 293 292 292 292 292 291 289 288 286 284 282 280 278
251 244 235 238 238 251 266 271 263 257 254 258 251 248 253 258 262 276 283 284 284 287 289 290 292 294 295 297 296 296 295 294 294 293 293 292 292 291 289 288 286 283 281 279
242 245 235 239 249 255 264 265 246 227 267 252 233 263 249 254 274 283 285 288 289 291 294 296 297 297 297 297 297 296 296 295 295 294 294 294 293 292 291 289 287 285 283 281
258 256 248 247 246 248 243 254 242 261 220 263 282 267 272 281 286 283 283 288 292 293 294 295 297 298 297 296 296 296 297 297 298 298 297 297 296 295 294 292 291 289 286 284
268 249 246 238 279 276 275 274 277 278 267 271 270 278 284 283 283 283 289 292 294 295 295 297 298 298 298 298 299 300 300 299 299 299 299 298 296 294 292 291 289 287 285 283
281 276 271 273 260 252 263 264 276 266 268 279 287 285 287 286 289 292 292 294 295 296 298 297 297 299 301 301 302 303 302 302 304 304 302 300 298 295 293 291 289 287 284 282
277 270 250 242 255 272 276 282 284 293 295 289 283 279 284 288 292 294 296 297 297 297 297 300 302 304 303 303 305 306 305 305 305 304 302 301 299 297 294 291 288 285 283 281
254 245 234 264 289 275 282 289 288 281 277 275 284 294 295 296 298 297 299 297 299 301 302 303 304 306 307 307 307 306 304 304 304 303 302 302 301 298 294 291 287 283 283 280